Buffalo, NY

11:40 PM EST on November 18, 2017 (GMT -0500)
Buffalo Niagara International

Weather History for KBUF - June, 2013

Change the Weather History Date:

Saturday, June 8, 2013

  Actual Average Record
Temperature  
Mean Temperature 59 °F 64 °F  
Max Temperature 62 °F 73 °F 91 °F (1968)
Min Temperature 56 °F 55 °F 38 °F (1949)
Degree Days  
Heating Degree Days 6 3  
Month to date heating degree days 47 30  
Since 1 June heating degree days 47 30  
Since 1 July heating degree days 6079 6583  
Cooling Degree Days 0 2  
Month to date cooling degree days 11 16  
Year to date cooling degree days 82 42  
Since 1 June cooling degree days 11 16  
Growing Degree Days 8 (Base 50)    
Moisture  
Dew Point 55 °F    
Average Humidity 89    
Maximum Humidity 100    
Minimum Humidity 78    
Precipitation  
Precipitation 0.04 in 0.13 in 0.68 in (1961)
Month to date precipitation 3.66 0.98  
Year to date precipitation 17.76 15.99  
Snow  
Snow 0.00 in 0.00 in 0.00 in ()
Month to date snowfall 0.0 0.0  
Since 1 June snowfall 0.0 0.0  
Since 1 July snowfall 58.8 94.7  
Snow Depth 0.00 in    
Sea Level Pressure  
Sea Level Pressure 29.94 in    
Wind  
Wind Speed 8 mph (West)    
Max Wind Speed 16 mph    
Max Gust Speed 21 mph    
Visibility 6 miles    
Events Fog , Rain    
T = Trace of Precipitation, MM = Missing Value Source: NWS Daily Summary

Daily Weather History Graph

Daily Weather History Graph

Search for Another Location

Airport or City:

Trip Planner

Search our weather history database for the weather conditions in past years. The results will help you decide how hot, cold, wet, or windy it might be!

Date:

Astronomy

Jun. 08, 2013 Rise Set
Actual Time 5:36 AM EDT 8:52 PM EDT
Civil Twilight 5:01 AM EDT 9:27 PM EDT
Nautical Twilight 4:16 AM EDT 10:12 PM EDT
Astronomical Twilight 3:20 AM EDT 11:07 PM EDT
Moon 5:43 AM EDT (6/8) 8:51 PM EDT (6/8)
Length of Visible Light 16h 26m
Length of Day
15h 16m
New Moon, 0% of the Moon is Illuminated
Jun 8
New Moon
Jun 16
First Quarter
Jun 23
Full
Jun 30
Last Quarter
Jul 8
New

Hourly Weather History & Observations

Time (EDT) Temp. Dew Point Humidity Pressure Visibility Wind Dir Wind Speed Gust Speed Precip Events Conditions
12:54 AM 57.0 °F 55.9 °F 96% 29.84 in 0.5 mi NW 6.9 mph - 0.00 in Fog Light Drizzle
1:54 AM 57.0 °F 55.9 °F 96% 29.84 in 1.0 mi NW 8.1 mph - 0.01 in Rain Light Rain
2:19 AM 57.2 °F 55.4 °F 94% 29.83 in 2.0 mi NW 8.1 mph - 0.00 in Rain Light Rain
2:54 AM 55.9 °F 55.9 °F 100% 29.84 in 1.8 mi NW 6.9 mph - 0.01 in Rain Light Rain
3:05 AM 55.4 °F 55.4 °F 100% 29.84 in 2.5 mi NW 9.2 mph - 0.00 in Rain Light Rain
3:21 AM 55.4 °F 55.4 °F 100% 29.84 in 1.5 mi NW 8.1 mph - 0.00 in Rain Light Rain
3:54 AM 55.9 °F 55.9 °F 100% 29.84 in 1.2 mi NW 9.2 mph - 0.00 in Rain Light Rain
4:54 AM 55.9 °F 55.9 °F 100% 29.86 in 2.5 mi NW 6.9 mph - 0.01 in   Light Drizzle
5:38 AM 55.4 °F 55.4 °F 100% 29.86 in 6.0 mi NW 6.9 mph - 0.00 in   Light Drizzle
5:50 AM 55.4 °F 55.4 °F 100% 29.87 in 2.5 mi NNW 4.6 mph - 0.00 in   Overcast
5:54 AM 55.9 °F 55.9 °F 100% 29.88 in 2.0 mi NNW 4.6 mph - 0.00 in   Overcast
5:56 AM 55.4 °F 55.4 °F 100% 29.87 in 1.5 mi NNW 4.6 mph - N/A   Overcast
6:10 AM 55.4 °F 55.4 °F 100% 29.88 in 2.5 mi NW 4.6 mph - 0.00 in   Light Drizzle
6:21 AM 55.4 °F 55.4 °F 100% 29.88 in 3.0 mi NW 3.5 mph - 0.00 in   Light Drizzle
6:54 AM 55.9 °F 55.0 °F 97% 29.90 in 8.0 mi WNW 3.5 mph - 0.00 in   Overcast
7:41 AM 57.2 °F 55.4 °F 94% 29.91 in 3.0 mi West 3.5 mph - 0.00 in   Light Drizzle
7:54 AM 57.0 °F 55.9 °F 96% 29.92 in 2.0 mi West 5.8 mph - 0.00 in   Light Drizzle
8:54 AM 57.0 °F 55.9 °F 96% 29.94 in 10.0 mi West 4.6 mph - 0.00 in   Overcast
8:57 AM 57.2 °F 55.4 °F 94% 29.94 in 10.0 mi West 5.8 mph - N/A   Overcast
9:24 AM 57.2 °F 55.4 °F 94% 29.94 in 4.0 mi West 6.9 mph - 0.00 in Rain Light Rain
9:54 AM 57.0 °F 55.9 °F 96% 29.95 in 6.0 mi West 8.1 mph - 0.00 in Rain Light Rain
10:47 AM 57.2 °F 55.4 °F 94% 29.95 in 2.5 mi West 5.8 mph - 0.00 in Rain Light Rain
10:54 AM 57.9 °F 55.9 °F 93% 29.96 in 4.0 mi WNW 8.1 mph - 0.01 in Rain Light Rain
11:17 AM 57.2 °F 55.4 °F 94% 29.96 in 7.0 mi West 6.9 mph - 0.00 in   Overcast
11:40 AM 60.8 °F 55.4 °F 82% 29.96 in 10.0 mi West 5.8 mph - 0.00 in   Overcast
11:54 AM 61.0 °F 55.9 °F 83% 29.96 in 10.0 mi WSW 6.9 mph - 0.00 in   Overcast
12:37 PM 62.6 °F 55.4 °F 77% 29.97 in 10.0 mi West 9.2 mph - N/A   Overcast
12:54 PM 60.1 °F 54.0 °F 80% 29.97 in 8.0 mi WSW 8.1 mph - N/A   Overcast
1:28 PM 60.8 °F 55.4 °F 82% 29.97 in 10.0 mi WSW 9.2 mph - N/A   Overcast
1:54 PM 61.0 °F 55.9 °F 83% 29.98 in 10.0 mi SW 10.4 mph - N/A   Overcast
2:33 PM 60.8 °F 55.4 °F 82% 30.00 in 10.0 mi WSW 11.5 mph - 0.00 in Rain Light Rain
2:54 PM 59.0 °F 55.0 °F 87% 30.01 in 9.0 mi WSW 12.7 mph - 0.00 in Rain Light Rain
3:13 PM 59.0 °F 55.4 °F 88% 30.00 in 10.0 mi WSW 11.5 mph - 0.00 in   Overcast
3:54 PM 60.1 °F 55.9 °F 86% 30.00 in 10.0 mi SW 6.9 mph - 0.00 in   Mostly Cloudy
4:54 PM 61.0 °F 55.9 °F 83% 30.00 in 10.0 mi SW 10.4 mph - N/A   Overcast
5:54 PM 60.1 °F 55.9 °F 86% 30.01 in 10.0 mi SW 12.7 mph - N/A   Mostly Cloudy
6:54 PM 61.0 °F 55.0 °F 81% 30.02 in 10.0 mi WSW 12.7 mph - N/A   Mostly Cloudy
7:54 PM 60.1 °F 54.0 °F 80% 30.04 in 10.0 mi SW 12.7 mph - N/A   Mostly Cloudy
8:54 PM 59.0 °F 53.1 °F 81% 30.05 in 10.0 mi SW 8.1 mph - N/A   Mostly Cloudy
9:54 PM 57.0 °F 53.1 °F 87% 30.08 in 10.0 mi SW 10.4 mph - N/A   Mostly Cloudy
10:54 PM 57.0 °F 53.1 °F 87% 30.09 in 10.0 mi SW 8.1 mph - N/A   Mostly Cloudy
11:54 PM 57.0 °F 53.1 °F 87% 30.09 in 10.0 mi SSW 8.1 mph - N/A   Mostly Cloudy